Location: Neuvy Saint Sepulchre
(46.5953°N, 1.8122°E)
Time: 11:33:54
(UTC+02:00)

ISS - Pass Details

Date: 10 May 2021
Orbit: 417 x 422 km, 51.6° (Epoch: 15 May)

Event Time Altitude Azimuth Distance (km) Brightness Sun altitude
Exits shadow 02:50:23 38° 22° (NNE) 662 -2.3 -24.3°
Drops below altitude 10° 02:52:55 10° 59° (ENE) 1,506 -0.4 -24.2°
Sets 02:55:05 0° 66° (ENE) 2,372 0.6 -24.1°
